This is the latest recevied weather packets stored in our database for station/object DH4SBM. If no packets are shown the sender has not sent any weather packets the latest 10 day(s).
| Time | Temp. | Humidity | Pressure | Rain* | Wind** | Luminosity | Snow |
|---|---|---|---|---|---|---|---|
| 1777568300 | 16.67° C | 26% | 1027.2 hPa | 0 mm | - | 181 W/m² | - |
| 1777565900 | 17.22° C | 21% | 1027.3 hPa | 0 mm | - | 290 W/m² | - |
| 1777564100 | 17.22° C | 22% | 1027.2 hPa | 0 mm | - | 369 W/m² | - |
| 1777563500 | 17.22° C | 21% | 1027.1 hPa | 0 mm | - | 396 W/m² | - |
| 1777562900 | 16.67° C | 22% | 1027.1 hPa | 0 mm | - | 424 W/m² | - |
| 1777562300 | 17.22° C | 22% | 1027.1 hPa | 0 mm | - | 450 W/m² | - |
| 1777561100 | 17.22° C | 23% | 1027.2 hPa | 0 mm | - | 501 W/m² | - |
| 1777560500 | 17.22° C | 24% | 1027.3 hPa | 0 mm | - | 524 W/m² | - |
| 1777558700 | 16.67° C | 23% | 1027.3 hPa | 0 mm | - | 598 W/m² | - |
| 1777557936 | 16.67° C | 24% | 1027.3 hPa | 0 mm | - | 621 W/m² | - |
| 1777557336 | 16.67° C | 23% | 1027.5 hPa | 0 mm | - | 642 W/m² | - |
| 1777556736 | 16.67° C | 24% | 1027.6 hPa | 0 mm | - | 661 W/m² | - |
| 1777556136 | 16.67° C | 24% | 1027.7 hPa | 0 mm | - | 686 W/m² | - |
| 1777555536 | 16.67° C | 23% | 1027.6 hPa | 0 mm | - | 701 W/m² | - |
| 1777554936 | 16.67° C | 24% | 1027.8 hPa | 0 mm | - | 721 W/m² | - |
| 1777554336 | 16.11° C | 24% | 1027.8 hPa | 0 mm | - | 738 W/m² | - |
| 1777553736 | 16.11° C | 23% | 1027.8 hPa | 0 mm | - | 752 W/m² | - |
| 1777553136 | 16.11° C | 25% | 1027.8 hPa | 0 mm | - | 772 W/m² | - |
| 1777551590 | 16.11° C | 24% | 1028.1 hPa | 0 mm | - | 803 W/m² | - |
| 1777547990 | 15° C | 28% | 1028.8 hPa | 0 mm | - | 833 W/m² | - |
| 1777547390 | 14.44° C | 28% | 1028.9 hPa | 0 mm | - | 837 W/m² | - |
| 1777546190 | 13.89° C | 29% | 1029 hPa | 0 mm | - | 833 W/m² | - |
| 1777544990 | 13.33° C | 27% | 1029.2 hPa | 0 mm | - | 828 W/m² | - |
| 1777544390 | 13.33° C | 26% | 1029.1 hPa | 0 mm | - | 817 W/m² | - |
| 1777543790 | 13.33° C | 28% | 1029.2 hPa | 0 mm | - | 812 W/m² | - |
* Rain latest hour (hover to see other rain measurements)
** Current wind speed in m/s (hover to see current wind gust speed)